Tridens — PBVO — position and weather

sailwx.info

Track history (hours):
 
Tides and Currents Weather Stations Pressure Air Temp Water Temp Dewpoint Dewpoint Depression Visibility Wind Speed Wind Dir Waves Ship Positions

Oceanographic research ship Tridens (Netherlands)

Detailed information on ship capabilities available from University of Delaware's Ocean Information Center.

Last reported at 2014-Sep-26 03:27 UTC. Time now 2014-Nov-01 03:11 UTC.
Position N 51°49' E 004°03'.
Warning: this ship's position is 35 days out of date.

Length 74 m; beam 14 m.

Type: Ship. MMSI: 244033000.

Date/timePositionNaut miles runAvg speedWind from/ knotsBaromVisibWave heightAir tempDewpointWater temp
2014-Sep-26 03:27N 51°49' E 004°03'0 0.3
2014-Sep-26 02:33N 51°49' E 004°02'7 7.0
2014-Sep-26 01:33N 51°52' E 003°52'2 1.9
2014-Sep-26 00:30N 51°53' E 003°49'0 0.1
2014-Sep-25 23:27N 51°53' E 003°49'0 0.0
2014-Sep-25 22:33N 51°53' E 003°49'0 0.0
2014-Sep-25 17:18N 51°53' E 003°49'6 8.7
2014-Sep-25 16:34N 51°58' E 003°55'1111.4
2014-Sep-25 15:33N 52°07' E 004°07'1211.9
2014-Sep-25 14:33N 52°17' E 004°18'1312.7
2014-Sep-25 13:33N 52°27' E 004°30'3 3.2
2014-Sep-25 12:33N 52°28' E 004°35'0 0.4
2014-Sep-25 11:33N 52°28' E 004°34'1212.1
2014-Sep-25 10:33N 52°35' E 004°18'14112.8
2014-Sep-24 23:32N 53°40' E 000°51'4610.3
2014-Sep-24 19:05N 54°26' E 000°48'12 6.3
2014-Sep-24 17:10N 54°32' E 000°30'711.4
2014-Sep-24 16:33N 54°25' E 000°30'5 4.6
2014-Sep-24 15:33N 54°21' E 000°29'8 8.2
2014-Sep-24 14:33N 54°13' E 000°30'10 9.9
2014-Sep-24 13:33N 54°03' E 000°30'1610.4
2014-Sep-24 12:04N 53°47' E 000°29'5 9.0
2014-Sep-24 11:32N 53°50' E 000°22'1111.0
2014-Sep-24 10:33N 53°58' E 000°10'9 8.9
2014-Sep-24 09:33N 54°07' E 000°09'7 7.2
2014-Sep-24 08:33N 54°14' E 000°08'10 9.5
2014-Sep-24 07:33N 54°16' W 000°08'9 9.1
2014-Sep-24 06:33N 54°25' W 000°07'1010.0
2014-Sep-24 05:33N 54°25' E 000°10'1010.2
2014-Sep-24 04:34N 54°35' E 000°08'1010.3
2014-Sep-24 03:33N 54°37' W 000°10'9 9.2
2014-Sep-24 02:33N 54°46' W 000°05'9 8.9
2014-Sep-24 01:33N 54°49' E 000°10'24 1.7
2014-Sep-23 11:32N 54°55' W 000°30'1511.3
2014-Sep-23 10:14N 54°40' W 000°30'6 8.7
2014-Sep-23 09:33N 54°35' W 000°35'9 9.4
2014-Sep-23 08:33N 54°38' W 000°50'10 9.7
2014-Sep-23 07:34N 54°48' W 000°50'1110.4
2014-Sep-23 06:33N 54°58' W 000°50'1513.3
2014-Sep-23 05:25N 54°48' W 001°08'3536.1
2014-Sep-23 04:27N 55°21' W 000°50'12 1.6
2014-Sep-22 21:05N 55°23' W 001°10'1010.6
2014-Sep-22 20:07N 55°13' W 001°10'7 9.3
2014-Sep-22 19:22N 55°06' W 001°10'1011.9
2014-Sep-22 18:33N 54°56' W 001°10'10 9.3
2014-Sep-22 17:32N 54°47' W 001°10'1413.9
2014-Sep-22 16:33N 54°60' W 001°17'3811.7
2014-Sep-22 13:19N 55°37' W 001°30'911.7
2014-Sep-22 12:33N 55°46' W 001°30'9 8.3
2014-Sep-22 11:30N 55°55' W 001°31'10 5.3
2014-Sep-22 09:32N 55°55' W 001°50'16 7.7
2014-Sep-22 07:30N 56°05' W 002°10'1111.7
2014-Sep-22 06:33N 56°05' W 002°30'1414.3
2014-Sep-22 05:33N 56°04' W 002°56'10 8.8
2014-Sep-22 04:26N 55°59' W 003°11'0 0.5
2014-Sep-22 03:31N 55°59' W 003°11'0 0.0
2014-Sep-22 02:31N 55°59' W 003°11'0 0.0
2014-Sep-22 01:31N 55°59' W 003°11'0 0.0
2014-Sep-22 00:31N 55°59' W 003°11'0 0.0
2014-Sep-21 23:31N 55°59' W 003°11'0 0.0
2014-Sep-21 22:31N 55°59' W 003°11'0 0.0
2014-Sep-21 21:22N 55°59' W 003°11'0 0.0
2014-Sep-21 20:22N 55°59' W 003°11'0 0.0
2014-Sep-21 19:25N 55°59' W 003°11'0 0.0
2014-Sep-21 18:25N 55°59' W 003°11'0 0.0
2014-Sep-21 17:25N 55°59' W 003°11'0 0.0
2014-Sep-21 16:25N 55°59' W 003°11'0 0.0
2014-Sep-21 15:25N 55°59' W 003°11'0 0.0
2014-Sep-21 14:28N 55°59' W 003°11'0 0.0
2014-Sep-21 13:28N 55°59' W 003°11'0 0.0
2014-Sep-21 12:28N 55°59' W 003°11'0 0.0
2014-Sep-21 11:28N 55°59' W 003°11'0 0.0
2014-Sep-21 10:31N 55°59' W 003°11'0 0.0
2014-Sep-21 09:31N 55°59' W 003°11'0 0.0
2014-Sep-21 08:31N 55°59' W 003°11'0 0.0
2014-Sep-21 07:31N 55°59' W 003°11'0 0.0
2014-Sep-21 06:31N 55°59' W 003°11'0 0.0
2014-Sep-21 05:31N 55°59' W 003°11'0 0.0
2014-Sep-21 04:31N 55°59' W 003°11'0 0.0
2014-Sep-21 03:19N 55°59' W 003°11'0 0.0
2014-Sep-21 02:31N 55°59' W 003°11'0 0.0
2014-Sep-21 01:31N 55°59' W 003°11'0 0.0
2014-Sep-21 00:31N 55°59' W 003°11'0 0.0
2014-Sep-20 23:34N 55°59' W 003°11'0 0.0
2014-Sep-20 22:33N 55°59' W 003°11'0 0.0
2014-Sep-20 21:33N 55°59' W 003°11'0 0.0
2014-Sep-20 20:33N 55°59' W 003°11'0 0.0
2014-Sep-20 19:33N 55°59' W 003°11'0 0.0
2014-Sep-20 18:24N 55°59' W 003°11'0 0.0
2014-Sep-20 17:24N 55°59' W 003°11'0 0.0
2014-Sep-20 16:27N 55°59' W 003°11'0 0.0
2014-Sep-20 15:27N 55°59' W 003°11'0 0.0
2014-Sep-20 14:27N 55°59' W 003°11'0 0.0
2014-Sep-20 13:24N 55°59' W 003°11'0 0.0
2014-Sep-20 12:27N 55°59' W 003°11'0 0.0
2014-Sep-20 11:30N 55°59' W 003°11'0 0.0
2014-Sep-20 10:30N 55°59' W 003°11'0 0.0
2014-Sep-20 09:30N 55°59' W 003°11'0 0.0
2014-Sep-20 08:30N 55°59' W 003°11'0 0.0
2014-Sep-20 07:30N 55°59' W 003°11'0 0.0
2014-Sep-20 06:33N 55°59' W 003°11'0 0.0
2014-Sep-20 05:33N 55°59' W 003°11'0 0.0
2014-Sep-20 04:30N 55°59' W 003°11'0 0.0
2014-Sep-20 03:33N 55°59' W 003°11'0 0.0
2014-Sep-20 02:33N 55°59' W 003°11'0 0.0
2014-Sep-20 01:33N 55°59' W 003°11'0 0.0
2014-Sep-20 00:33N 55°59' W 003°11'0 0.0
2014-Sep-19 23:33N 55°59' W 003°11'0 0.0
2014-Sep-19 22:33N 55°59' W 003°11'0 0.0
2014-Sep-19 21:24N 55°59' W 003°11'0 0.0
2014-Sep-19 20:33N 55°59' W 003°11'0 0.5
2014-Sep-19 19:33N 55°59' W 003°11'9 8.8
2014-Sep-19 18:34N 56°04' W 002°58'8 8.2
2014-Sep-19 17:33N 56°07' W 002°44'1212.3
2014-Sep-19 16:34N 56°14' W 002°26'9 8.7
2014-Sep-19 15:33N 56°15' W 002°10'11 3.6
2014-Sep-19 12:24N 56°26' W 002°10'66 7.3
2014-Sep-19 03:24N 57°30' W 001°40'7 8.6
2014-Sep-19 02:33N 57°38' W 001°43'10 9.6
2014-Sep-19 01:34N 57°46' W 001°50'11 3.5
2014-Sep-18 22:33N 57°44' W 001°30'10 9.8
2014-Sep-18 21:31N 57°34' W 001°30'86 8.5
2014-Sep-18 11:26N 56°09' W 001°11'  
Track history (hours):
 
Tides and Currents Weather Stations Pressure Air Temp Water Temp Dewpoint Dewpoint Depression Visibility Wind Speed Wind Dir Waves Ship Positions

Oceanographic research ship Tridens (Netherlands)

Detailed information on ship capabilities available from University of Delaware's Ocean Information Center.

Last reported at 2014-Sep-26 03:27 UTC. Time now 2014-Nov-01 03:11 UTC.
Position N 51°49' E 004°03'.
Warning: this ship's position is 35 days out of date.

Length 74 m; beam 14 m.

Type: Ship. MMSI: 244033000.

Date/timePositionNaut miles runAvg speedWind from/ knotsBaromVisibWave heightAir tempDewpointWater temp
2014-Sep-26 03:27N 51°49' E 004°03'0 0.3
2014-Sep-26 02:33N 51°49' E 004°02'7 7.0
2014-Sep-26 01:33N 51°52' E 003°52'2 1.9
2014-Sep-26 00:30N 51°53' E 003°49'0 0.1
2014-Sep-25 23:27N 51°53' E 003°49'0 0.0
2014-Sep-25 22:33N 51°53' E 003°49'0 0.0
2014-Sep-25 17:18N 51°53' E 003°49'6 8.7
2014-Sep-25 16:34N 51°58' E 003°55'1111.4
2014-Sep-25 15:33N 52°07' E 004°07'1211.9
2014-Sep-25 14:33N 52°17' E 004°18'1312.7
2014-Sep-25 13:33N 52°27' E 004°30'3 3.2
2014-Sep-25 12:33N 52°28' E 004°35'0 0.4
2014-Sep-25 11:33N 52°28' E 004°34'1212.1
2014-Sep-25 10:33N 52°35' E 004°18'14112.8
2014-Sep-24 23:32N 53°40' E 000°51'4610.3
2014-Sep-24 19:05N 54°26' E 000°48'12 6.3
2014-Sep-24 17:10N 54°32' E 000°30'711.4
2014-Sep-24 16:33N 54°25' E 000°30'5 4.6
2014-Sep-24 15:33N 54°21' E 000°29'8 8.2
2014-Sep-24 14:33N 54°13' E 000°30'10 9.9
2014-Sep-24 13:33N 54°03' E 000°30'1610.4
2014-Sep-24 12:04N 53°47' E 000°29'5 9.0
2014-Sep-24 11:32N 53°50' E 000°22'1111.0
2014-Sep-24 10:33N 53°58' E 000°10'9 8.9
2014-Sep-24 09:33N 54°07' E 000°09'7 7.2
2014-Sep-24 08:33N 54°14' E 000°08'10 9.5
2014-Sep-24 07:33N 54°16' W 000°08'9 9.1
2014-Sep-24 06:33N 54°25' W 000°07'1010.0
2014-Sep-24 05:33N 54°25' E 000°10'1010.2
2014-Sep-24 04:34N 54°35' E 000°08'1010.3
2014-Sep-24 03:33N 54°37' W 000°10'9 9.2
2014-Sep-24 02:33N 54°46' W 000°05'9 8.9
2014-Sep-24 01:33N 54°49' E 000°10'24 1.7
2014-Sep-23 11:32N 54°55' W 000°30'1511.3
2014-Sep-23 10:14N 54°40' W 000°30'6 8.7
2014-Sep-23 09:33N 54°35' W 000°35'9 9.4
2014-Sep-23 08:33N 54°38' W 000°50'10 9.7
2014-Sep-23 07:34N 54°48' W 000°50'1110.4
2014-Sep-23 06:33N 54°58' W 000°50'1513.3
2014-Sep-23 05:25N 54°48' W 001°08'3536.1
2014-Sep-23 04:27N 55°21' W 000°50'12 1.6
2014-Sep-22 21:05N 55°23' W 001°10'1010.6
2014-Sep-22 20:07N 55°13' W 001°10'7 9.3
2014-Sep-22 19:22N 55°06' W 001°10'1011.9
2014-Sep-22 18:33N 54°56' W 001°10'10 9.3
2014-Sep-22 17:32N 54°47' W 001°10'1413.9
2014-Sep-22 16:33N 54°60' W 001°17'3811.7
2014-Sep-22 13:19N 55°37' W 001°30'911.7
2014-Sep-22 12:33N 55°46' W 001°30'9 8.3
2014-Sep-22 11:30N 55°55' W 001°31'10 5.3
2014-Sep-22 09:32N 55°55' W 001°50'16 7.7
2014-Sep-22 07:30N 56°05' W 002°10'1111.7
2014-Sep-22 06:33N 56°05' W 002°30'1414.3
2014-Sep-22 05:33N 56°04' W 002°56'10 8.8
2014-Sep-22 04:26N 55°59' W 003°11'0 0.5
2014-Sep-22 03:31N 55°59' W 003°11'0 0.0
2014-Sep-22 02:31N 55°59' W 003°11'0 0.0
2014-Sep-22 01:31N 55°59' W 003°11'0 0.0
2014-Sep-22 00:31N 55°59' W 003°11'0 0.0
2014-Sep-21 23:31N 55°59' W 003°11'0 0.0
2014-Sep-21 22:31N 55°59' W 003°11'0 0.0
2014-Sep-21 21:22N 55°59' W 003°11'0 0.0
2014-Sep-21 20:22N 55°59' W 003°11'0 0.0
2014-Sep-21 19:25N 55°59' W 003°11'0 0.0
2014-Sep-21 18:25N 55°59' W 003°11'0 0.0
2014-Sep-21 17:25N 55°59' W 003°11'0 0.0
2014-Sep-21 16:25N 55°59' W 003°11'0 0.0
2014-Sep-21 15:25N 55°59' W 003°11'0 0.0
2014-Sep-21 14:28N 55°59' W 003°11'0 0.0
2014-Sep-21 13:28N 55°59' W 003°11'0 0.0
2014-Sep-21 12:28N 55°59' W 003°11'0 0.0
2014-Sep-21 11:28N 55°59' W 003°11'0 0.0
2014-Sep-21 10:31N 55°59' W 003°11'0 0.0
2014-Sep-21 09:31N 55°59' W 003°11'0 0.0
2014-Sep-21 08:31N 55°59' W 003°11'0 0.0
2014-Sep-21 07:31N 55°59' W 003°11'0 0.0
2014-Sep-21 06:31N 55°59' W 003°11'0 0.0
2014-Sep-21 05:31N 55°59' W 003°11'0 0.0
2014-Sep-21 04:31N 55°59' W 003°11'0 0.0
2014-Sep-21 03:19N 55°59' W 003°11'0 0.0
2014-Sep-21 02:31N 55°59' W 003°11'0 0.0
2014-Sep-21 01:31N 55°59' W 003°11'0 0.0
2014-Sep-21 00:31N 55°59' W 003°11'0 0.0
2014-Sep-20 23:34N 55°59' W 003°11'0 0.0
2014-Sep-20 22:33N 55°59' W 003°11'0 0.0
2014-Sep-20 21:33N 55°59' W 003°11'0 0.0
2014-Sep-20 20:33N 55°59' W 003°11'0 0.0
2014-Sep-20 19:33N 55°59' W 003°11'0 0.0
2014-Sep-20 18:24N 55°59' W 003°11'0 0.0
2014-Sep-20 17:24N 55°59' W 003°11'0 0.0
2014-Sep-20 16:27N 55°59' W 003°11'0 0.0
2014-Sep-20 15:27N 55°59' W 003°11'0 0.0
2014-Sep-20 14:27N 55°59' W 003°11'0 0.0
2014-Sep-20 13:24N 55°59' W 003°11'0 0.0
2014-Sep-20 12:27N 55°59' W 003°11'0 0.0
2014-Sep-20 11:30N 55°59' W 003°11'0 0.0
2014-Sep-20 10:30N 55°59' W 003°11'0 0.0
2014-Sep-20 09:30N 55°59' W 003°11'0 0.0
2014-Sep-20 08:30N 55°59' W 003°11'0 0.0
2014-Sep-20 07:30N 55°59' W 003°11'0 0.0
2014-Sep-20 06:33N 55°59' W 003°11'0 0.0
2014-Sep-20 05:33N 55°59' W 003°11'0 0.0
2014-Sep-20 04:30N 55°59' W 003°11'0 0.0
2014-Sep-20 03:33N 55°59' W 003°11'0 0.0
2014-Sep-20 02:33N 55°59' W 003°11'0 0.0
2014-Sep-20 01:33N 55°59' W 003°11'0 0.0
2014-Sep-20 00:33N 55°59' W 003°11'0 0.0
2014-Sep-19 23:33N 55°59' W 003°11'0 0.0
2014-Sep-19 22:33N 55°59' W 003°11'0 0.0
2014-Sep-19 21:24N 55°59' W 003°11'0 0.0
2014-Sep-19 20:33N 55°59' W 003°11'0 0.5
2014-Sep-19 19:33N 55°59' W 003°11'9 8.8
2014-Sep-19 18:34N 56°04' W 002°58'8 8.2
2014-Sep-19 17:33N 56°07' W 002°44'1212.3
2014-Sep-19 16:34N 56°14' W 002°26'9 8.7
2014-Sep-19 15:33N 56°15' W 002°10'11 3.6
2014-Sep-19 12:24N 56°26' W 002°10'66 7.3
2014-Sep-19 03:24N 57°30' W 001°40'7 8.6
2014-Sep-19 02:33N 57°38' W 001°43'10 9.6
2014-Sep-19 01:34N 57°46' W 001°50'11 3.5
2014-Sep-18 22:33N 57°44' W 001°30'10 9.8
2014-Sep-18 21:31N 57°34' W 001°30'86 8.5
2014-Sep-18 11:26N 56°09' W 001°11'  

Dump ship's entire track history